Location: Mahannah Oil Field
(37.4664°N, 96.6003°W)
Time: 06:01:43
(UTC+00:00)

Courier 1B Rocket - Pass Details

Date: 29 January 2021
Orbit: 920 x 1202 km, 28.3° (Epoch: 05 March)

Event Time Altitude Azimuth Distance (km) Brightness Sun altitude
Exits shadow 11:34:23 22° 213° (SSW) 1,948 6.3 -23.5°
Maximum altitude 11:37:25 32° 169° (S) 1,578 6.2 -22.9°
Drops below altitude 10° 11:43:16 10° 108° (ESE) 2,782 8.5 -21.7°
Sets 11:46:19 0° 99° (E) 3,782 9.7 -21.1°
